Regional Weather Roundup
Issued by NWS

Home | Current Version | Previous Version | Graphics & Text | Print | Product List | Glossary Off
Versions: 1 2 3 4 5 6 7 8 9 10 11 12 13 14 15 16 17 18 19 20 21 22 23 24 25 26 27 28 29 30 31 32 33 34 35 36 37 38 39 40 41 42 43 44 45 46 47 48 49 50

000
ASUS43 KTOP 150508
RWRKS

WEATHER ROUNDUP FOR KANSAS
NATIONAL WEATHER SERVICE GOODLAND KS
1200 AM CDT TUE APR 15 2014

NOTE:  "FAIR" INDICATES FEW OR NO CLOUDS BELOW 12,000 FEET WITH NO
SIGNIFICANT WEATHER AND/OR OBSTRUCTIONS TO VISIBILITY.

KSZ001>006-013>018-027>032-041>047-150600-
NORTHWEST KANSAS

CITY           SKY/WX    TMP DP  RH WIND       PRES   REMARKS
GOODLAND       CLEAR     26  19  74 W10       30.20F WCI  16
HAYS           CLEAR     30  16  55 W5        30.20S
HILL CITY      CLEAR     31  22  69 W8        30.20S
RUSSELL        CLEAR     33  19  56 W5        30.18F
$$

KSZ061>065-074>080-084>089-150600-
SOUTHWEST KANSAS

CITY           SKY/WX    TMP DP  RH WIND       PRES   REMARKS
DODGE CITY     CLEAR     31  14  49 W8        30.24S
ELKHART          N/A     32  15  49 W3          N/A
GARDEN CITY    CLEAR     27  18  69 W8        30.24S
GREAT BEND     CLEAR     28  10  47 W8        30.21S
LIBERAL        CLEAR     28  19  69 W9        30.28S
PRATT          CLEAR     30  21  69 W9        30.23S
$$

KSZ066>073-081>083-090>101-150600-
SOUTHEAST KANSAS

CITY           SKY/WX    TMP DP  RH WIND       PRES   REMARKS
CHANUTE        PTCLDY    31  22  69 SW5       30.19S
COFFEYVILLE    CLEAR     32  25  75 CALM      30.20F
HUTCHINSON     CLEAR     34  14  43 NW3       30.20F
MEDICINE LODGE   N/A     34  18  52 NW3       30.23S
NEWTON         CLEAR     34  12  40 W7        30.21F
PARSONS        CLEAR     28  23  81 CALM      30.21S
WICHITA INTL   CLEAR     32  17  54 W6        30.20S
WICHITA JABRA  CLEAR     36  19  50 W7        30.19S
WICHITA MCCONL CLEAR     37  16  42 W6        30.20S
WINFIELD       CLEAR     31  19  61 CALM      30.22S
$$

KSZ007>012-019>026-033>040-048>060-102>105-150600-
NORTHEAST KANSAS

CITY           SKY/WX    TMP DP  RH WIND       PRES   REMARKS
CONCORDIA      CLEAR     31  25  78 N13G18    30.18R WCI  21
EMPORIA        MOCLDY    35  22  58 W5        30.17F
LAWRENCE       MOCLDY    31  26  82 NW3       30.19S
MANHATTAN      CLEAR     35  25  66 NW3       30.18S
OLATHE IND     CLOUDY    34  24  67 N6        30.18S
OLATHE EXE     CLOUDY    35  22  58 NW3       30.17R
SALINA         FAIR      33  20  58 NW6       30.20S
TOPEKA BILLARD CLOUDY    39  26  59 CALM      30.19S
TOPEKA FORBES  CLOUDY    37  26  64 CALM      30.18R
$$



USA.gov is the U.S. government's official web portal to all federal, state and local government web resources and services.